SCP
0 0 0 0 0 0 0 0 0 0 0 0 0 0 0 0 0 0 0 0 0 0 0 0 0 0 0 0 0 0 0 0 0 0 0 0 1 1
0 0 0 0 0 0 0 0 0 0 0 0 0 0 0 0 0 0 0 0 0 0 0 0 0 0 0 0 0 0 0 0 0 0 0 0 0 0
0 0 0 0 0 0 0 0 0 0 0 0 0 0 0 0 0 0 0 0 0 0 0 0 0 0 0 0 0 0 0 0 0 0 0 0 0 0
0 0 0 0 0 0 0 0 0 0 0 0 0 0 0 0 0 0 0 0 0 0 0 0 0 0 0 0 0 0 0 0 0 0 0 0 0 0
0 0 0 0 0 0 0 0 0 0 0 0 0 0 0 0 0 0 0 0 0 0 0 0 0 0 0 0 0 0 0 0 0 0 0 0 0 0
0 0 0 0 0 0 0 0 0 0 0 0 0 0 0 0 0 0 0 0 0 0 0 0 0 0 0 0 0 0 0 0 0 0 0 0 0 0
0 0 0 0 0 0 0 0 0 0 0 0 0 0 0 0 0 0 0 0 0 0 0 0 0 0 0 0 0 0 0 0 0 0 0 0 0 0
0 0 0 0 0 0 0 0 0 0 0 0 0 0 0 0 0 0 0 0 0 0 0 0 0 0 0 0 0 0 0 0 0 0 0 0 0 0
0 0 0 0 0 0 0 0 0 0 0 0 0 0 0 0 0 0 0 0 0 0 0 0 0 0 0 0 0 0 0 0 0 0 0 0 0 0
0 0 0 0 0 0 0 0 0 0 0 0 0 0 0 0 0 0 0 0 0 0 0 0 0 0 0 0 0 0 0 0 0 0 0 0 0 0
0 0 0 0 0 0 0 0 0 0 0 0 0 0 0 0 0 0 0 0 0 0 0 0 0 0 0 0 0 0 0 0 0 0 0 0 0 0
0 0 0 0 0 0 0 0 0 0 0 0 0 0 0 0 0 0 0 0 0 0 0 0 0 0 0 0 0 0 0 0 0 0 0 0 0 0
0 0 0 0 0 0 0 0 0 0 0 0 0 0 0 0 0 0 0 0 0 0 0 0 0 0 0 0 0 0 0 0 0 0 0 0 0 0
0 0 0 0 0 0 0 0 0 0 0 0 0 0 0 0 0 0 0 0 0 0 0 0 0 0 0 0 0 0 0 0 0 0 0 0 0 0
0 0 0 0 0 0 0 0 0 0 0 0 0 0 0 0 0 0 0 0 0 0 0 0 0 0 0 0 0 0 0 0 0 0 0 0 0 0
0 0 0 0 0 0 0 0 0 0 0 0 0 0 0 0 0 0 0 0 0 0 0 0 0 0 0 0 0 0 0 0 0 0 0 0 0 0
0 0 0 0 0 0 0 0 0 0 0 0 0 0 0 0 0 0 0 0 0 0 0 0 0 0 0 0 0 0 0 0 0 0 0 0 0 0
0 0 0 0 0 0 0 0 0 0 0 0 0 0 0 0 0 0 0 0 0 0 0 0 0 0 0 0 0 0 0 0 0 0 0 0 0 0
0 0 0 0 0 0 0 0 0 0 0 0 0 0 0 0 0 0 0 0 0 0 0 0 0 0 0 0 0 0 0 0 0 0 0 0 0 0
0 0 0 0 0 0 0 0 0 0 0 0 0 0 0 0 0 0 0 0 0 0 0 0 0 0 0 0 0 0 0 0 0 0 0 0 0 0
0 0 0 0 0 0 0 0 0 0 0 0 0 0 0 0 0 0 0 0 0 0 0 0 0 0 0 0 0 0 0 0 0 0 0 0 0 0
0 0 0 0 0 0 0 0 0 0 0 0 0 0 0 0 0 0 0 0 0 0 0 0 0 0 0 0 0 0 0 0 0 0 0 0 0 0
0 0 0 0 0 0 0 0 0 0 0 0 0 0 0 0 0 0 0 0 0 0 0 0 0 0 0 0 0 0 0 0 0 0 0 0 0 0
Wind_Speed
4 4 3 2 2 2 2 3 4 3 4 3 2 2 2 3 3 3 3 4 5 5 5 5 5 5 5 6 6 5 5 5 5 5 5 5 5 5
3 4 3 2 2 2 2 2 2 3 4 3 2 2 2 2 4 4 4 5 5 6 6 6 6 6 6 6 6 6 6 6 6 7 6 6 6 6
4 4 4 3 3 2 2 2 2 2 3 3 2 1 2 3 2 2 3 3 4 5 6 6 6 7 7 7 7 7 7 7 7 7 7 7 7 6
5 5 5 3 4 3 3 3 3 3 3 4 2 2 2 3 3 3 2 3 3 4 5 6 6 6 7 8 8 8 8 8 8 8 7 7 7 7
5 6 5 5 4 3 4 4 3 2 2 3 3 2 2 1 2 2 2 2 2 3 4 5 6 6 6 7 7 8 8 8 8 8 7 7 7 7
4 5 5 6 6 5 4 4 3 3 3 3 2 2 1 1 2 3 2 2 3 2 3 3 4 5 6 6 7 7 8 8 8 8 7 7 7 7
4 4 5 5 6 5 4 4 4 3 3 3 3 2 2 2 3 3 3 2 3 2 2 3 3 3 4 5 6 7 7 7 8 8 7 7 7 7
5 4 4 5 5 6 7 6 6 5 5 4 3 4 4 4 3 3 3 2 3 2 3 3 3 4 4 4 6 7 8 8 8 8 8 7 7 7
5 4 4 4 5 4 5 7 7 8 8 6 5 6 5 5 5 4 4 4 4 2 2 3 3 4 3 4 7 8 8 8 8 8 8 8 8 8
5 5 5 4 5 4 4 5 5 5 6 5 6 6 5 5 6 6 5 3 2 2 3 3 2 3 3 3 7 8 8 8 9 9 9 8 8 8
4 4 4 5 7 7 5 5 5 5 5 6 7 6 6 6 5 3 3 3 3 3 2 2 1 2 2 3 4 7 7 7 8 9 9 8 7 6
3 4 7 6 7 8 6 5 6 5 3 3 3 3 3 4 6 6 5 4 3 3 3 3 2 1 2 2 2 3 4 6 7 8 7 7 6 3
3 3 4 7 8 8 7 6 7 5 4 3 3 2 2 3 4 4 4 5 4 3 3 3 2 2 2 2 2 2 3 3 3 4 6 7 7 5
4 3 4 7 8 9 7 7 7 5 3 3 3 3 3 3 3 4 4 4 4 4 4 4 3 3 3 2 3 2 2 2 2 3 2 5 6 7
4 6 6 7 7 6 7 8 6 3 3 4 4 4 4 3 2 2 2 2 2 2 3 4 4 3 3 4 3 2 2 2 3 3 3 3 3 4
4 5 6 6 5 5 5 4 3 3 4 4 4 3 2 2 3 2 3 3 2 2 1 3 4 4 4 3 3 4 3 3 3 3 3 3 3 3
4 2 2 2 2 2 2 2 2 2 3 3 3 3 3 3 3 3 3 3 4 4 2 1 1 1 2 3 4 4 4 3 3 3 3 4 4 4
4 2 2 2 3 3 3 3 3 3 3 3 3 4 4 4 3 3 3 4 4 4 4 3 2 0 1 2 4 4 3 3 2 2 2 3 4 3
3 2 3 3 3 3 3 3 3 3 3 3 4 4 4 3 3 4 4 4 4 4 4 3 3 3 4 5 3 3 4 3 2 3 3 3 4 4
2 2 3 3 2 3 3 3 3 3 3 3 3 3 3 4 4 4 5 5 5 4 4 3 4 5 6 5 3 2 4 4 4 4 3 2 3 3
2 2 3 3 3 3 3 3 3 3 3 3 3 3 3 4 4 5 5 7 6 5 6 5 5 5 2 1 1 2 2 3 3 3 3 2 2 2
3 3 3 3 3 3 3 3 3 3 3 3 3 3 3 4 4 5 5 5 5 5 5 3 2 2 2 4 4 3 2 2 2 3 4 5 3 4
3 3 3 3 3 3 3 3 4 3 3 3 3 3 3 3 4 4 4 4 4 4 4 3 2 2 3 3 3 3 3 2 2 1 2 3 4 5
Wind_Direction
219 210 211 219 212 201 189 180 177 204 227 222 212 216 216 211 212 201 212 222 218 214 217 216 210 207 200 203 213 217 215 211 210 214 221 231 239 243
215 210 216 221 212 212 203 201 193 198 224 226 226 229 220 223 213 201 214 219 224 220 215 211 212 208 206 208 215 217 214 212 213 217 225 234 240 246
218 212 221 216 209 210 204 203 208 195 222 253 250 231 204 220 219 209 212 210 222 226 222 217 216 214 211 211 215 217 218 217 217 220 226 233 239 243
220 215 218 214 217 214 208 212 217 211 208 238 247 223 225 219 208 209 220 219 220 230 223 222 221 217 215 213 216 219 222 221 218 220 224 231 237 240
223 216 214 206 217 220 216 215 217 226 219 220 234 228 231 221 207 207 216 225 231 234 227 224 223 219 218 219 221 222 221 218 217 220 225 229 233 237
235 223 214 212 216 215 217 217 213 216 219 218 222 215 219 226 204 199 221 223 234 235 234 233 226 220 222 224 224 221 219 219 219 222 225 227 231 237
236 231 224 226 228 224 225 215 207 212 213 221 220 213 211 203 216 200 216 223 240 217 227 230 222 220 221 228 227 223 218 219 222 223 225 229 232 237
233 232 228 228 233 239 243 237 227 219 219 221 228 222 223 219 217 206 204 209 241 212 217 239 215 226 225 220 226 223 224 225 226 226 226 229 233 237
230 229 232 233 231 225 241 246 242 240 231 222 227 231 220 214 209 213 214 220 236 210 204 244 221 234 229 230 226 222 224 227 227 226 229 233 234 237
234 229 225 224 228 226 225 234 237 237 234 227 227 232 231 215 211 216 217 218 241 215 191 235 234 241 247 235 231 225 225 226 227 229 231 231 230 233
244 240 236 227 238 237 229 231 239 245 244 247 251 245 236 227 211 194 195 206 234 222 194 211 229 267 260 246 231 228 229 232 233 232 230 228 228 229
257 246 251 251 245 235 223 221 234 240 230 245 258 252 235 217 209 201 196 203 215 225 194 187 194 194 267 258 232 224 227 235 237 232 225 223 225 221
263 256 254 261 255 246 241 234 240 241 229 228 228 232 235 223 215 210 204 203 207 227 195 179 192 197 219 268 268 234 219 226 225 225 222 224 226 221
268 261 263 268 262 254 246 244 244 242 228 226 227 226 229 231 229 217 215 218 221 223 200 187 198 202 204 233 259 263 246 226 212 222 222 230 231 233
278 280 282 276 273 261 251 247 240 226 216 224 227 228 226 228 225 220 216 218 231 236 205 204 200 206 209 220 230 240 260 251 217 214 217 223 225 223
287 285 283 276 274 270 263 250 239 227 222 229 227 226 214 213 220 217 219 211 223 249 244 220 211 199 215 224 220 232 224 227 223 224 228 236 234 224
286 279 268 261 260 261 256 250 244 238 240 231 223 218 216 222 231 223 215 212 220 226 227 230 228 229 232 217 224 227 222 234 235 223 227 246 242 232
279 253 255 257 257 258 257 253 245 239 235 231 225 221 221 222 230 226 216 217 223 225 221 208 189 207 275 279 234 223 219 228 236 232 232 244 255 244
280 258 252 251 257 256 256 255 256 256 243 231 229 227 226 225 225 224 222 222 226 223 217 202 196 197 221 245 256 224 214 222 226 236 233 235 252 255
291 281 273 268 269 271 270 269 270 268 255 245 238 233 230 227 227 228 224 222 222 220 219 213 207 207 217 226 227 259 246 225 219 228 241 256 270 278
286 280 277 274 269 267 268 269 267 262 259 254 248 240 234 230 231 231 230 229 223 218 219 223 222 215 194 142 215 258 265 263 247 230 222 238 268 269
278 278 275 271 268 264 261 262 260 257 254 253 251 246 238 234 239 237 230 224 222 220 223 219 189 184 192 208 225 235 252 273 280 273 250 227 218 229
282 278 275 271 268 265 259 256 255 253 251 250 250 249 243 242 240 237 233 227 218 214 211 205 200 206 213 208 216 225 228 241 255 273 280 267 267 274